Regional Weather Roundup
Issued by NWS

Home | Current Version | Previous Version | Text Only | Print | Product List | Glossary Off
Versions: 1 2 3 4 5 6 7 8 9 10 11 12 13 14 15 16 17 18 19 20 21 22 23 24 25 26 27 28 29 30 31 32 33 34 35 36 37 38 39 40 41 42 43 44 45 46 47 48 49 50

000
ASUS43 KMPX 270501
RWRMN
WEATHER ROUNDUP FOR MINNESOTA
NATIONAL WEATHER SERVICE TWIN CITIES/CHANHASSEN MN
1200 AM CDT FRI APR 27 2018


NOTE: "FAIR" INDICATES FEW OR NO CLOUDS BELOW 12,000 FEET WITH NO
SIGNIFICANT WEATHER AND/OR OBSTRUCTIONS TO VISIBILITY. N/A MEANS
CURRENT SKY AND/OR WEATHER CONDITIONS ARE NOT AVAILABLE.

MNZ060>063-068>070-270600-
   Twin Cities Metro

CITY           SKY/WX    TMP DP  RH WIND       PRES   REMARKS
TWIN CITIES    FAIR      48  28  46 NW8       29.93F
ST PAUL        FAIR      46  25  43 NW8       29.93S
CRYSTAL        FAIR      47  25  42 W5        29.92F
BLAINE         FAIR      46  27  46 NW7       29.92F
LAKEVILLE      FAIR      43  30  61 NW9       29.94S
EDEN PRAIRIE   FAIR      48  28  46 NW3       29.93S
SOUTH ST PAUL  FAIR      49  23  36 NW5       29.92F
LAKE ELMO      FAIR      45  27  49 CALM      29.93S
$$
MNZ001>005-007-008-013>017-022>024-027-028-270600-
   Northwest Minnesota

CITY           SKY/WX    TMP DP  RH WIND       PRES   REMARKS
BEMIDJI        MOCLDY    45  25  46 CALM      29.82F
HALLOCK        FAIR      50  30  46 SE7       29.75S
ROSEAU         CLOUDY    48  36  61 SE6       29.79F
WARROAD        FAIR      45  36  70 E5        29.80F
THIEF RVR FALL FAIR      47  32  56 SE12      29.79F
CROOKSTON      MOCLDY    50  36  57 SW15      29.78F
FOSSTON        MOCLDY    43  30  61 S13       29.82F
DETROIT LAKES  FAIR      45  32  61 S9        29.84F
MOORHEAD       FAIR      48  34  57 S14       29.83F
PARK RAPIDS    CLOUDY    43  29  57 S5        29.84F
MAHNOMEN       MOCLDY    45  32  60 S10       29.82F
$$
MNZ006-009>011-018-025>026-270600-
   North Central Minnesota

CITY           SKY/WX    TMP DP  RH WIND       PRES   REMARKS
BAUDETTE       CLOUDY    45  24  43 SE6       29.82F
FLAG ISLAND    FAIR      37  28  70 S10       29.77F
INTL FALLS     LGT RAIN  43  27  53 SW8       29.83F
WASKISH        CLOUDY    43  27  52 CALM      29.83S
BIG FORK       FAIR      34  23  64 CALM      29.82F
LONGVILLE      FAIR      34  27  75 CALM      29.84F
GRAND RAPIDS   FAIR      33  21  61 CALM      29.86F
CRANE LAKE     MOCLDY    28  25  86 CALM      29.86F
ORR            MOCLDY    32  21  64 CALM      29.82F
COOK           CLOUDY    30  25  80 CALM      29.85F
WALKER         CLOUDY    42  23  46 S3        29.84F
$$
MNZ012-019>021-037-270600-
   Northeast Minnesota

CITY           SKY/WX    TMP DP  RH WIND       PRES   REMARKS
DULUTH         FAIR      35  21  56 CALM      29.86F
ELY            FAIR      28  23  80 CALM      29.85F
HIBBING        FAIR      27  20  75 CALM      29.85F
EVELETH        FAIR      28  22  79 CALM      29.86F
DULUTH HARBOR  FAIR      37  32  81 SW3       29.89F
TWO HARBORS    FAIR      32  25  74 CALM      29.85F
SILVER BAY     FAIR      28  25  86 CALM      29.86F
GRAND MARAIS     N/A     31  26  82 N3        29.87F
G MARAIS ARPRT FAIR      27  21  80 N3        29.86S
$$
MNZ029>031-032-039>041-046>048-054>057-064-270600-
   West Central Minnesota

CITY           SKY/WX    TMP DP  RH WIND       PRES   REMARKS
FERGUS FALLS   FAIR      43  34  70 S10       29.87F
WHEATON        PTCLDY    45  34  65 S10       29.92F
MORRIS         CLEAR     39  34  81 S7        29.91F
ALEXANDRIA     MOCLDY    43  29  57 S7        29.91F
ELBOW LAKE     FAIR      38  33  81 S10       29.90F
WADENA         FAIR      39  28  65 S6        29.87F
GLENWOOD       FAIR      37  28  70 S6        29.93F
APPLETON       CLEAR     45  34  65 SW8       29.94F
BENSON         CLEAR     39  32  75 SW6       29.95F
ORTONVILLE     CLEAR     43  34  70 S6        29.93F
MADISON        CLEAR     45  37  76 SW9       29.95F
WILLMAR        FAIR      36  30  80 SW6       29.97F
$$
MNZ033>034-036-042>043-049>051-058-059-270600-
   Central Minnesota

CITY           SKY/WX    TMP DP  RH WIND       PRES   REMARKS
ST CLOUD       FAIR      40  27  59 CALM      29.92F
SAUK CENTRE    FAIR      35  29  81 S3        29.92F
PAYNESVILLE    FAIR      34  29  81 CALM      29.94F
AITKIN         FAIR      28  23  80 CALM      29.86F
PINE RIVER     MOCLDY    34  25  69 CALM      29.90F
BRAINERD       FAIR      36  21  54 CALM      29.89F
STAPLES        MOCLDY    37  25  60 S5        29.87F
LONG PRAIRIE   FAIR      34  27  75 S6        29.91F WCI  29
LITTLE FALLS   FAIR      34  19  55 CALM      29.91F
LITCHFIELD     FAIR      39  28  65 CALM      29.95F
BUFFALO        FAIR      45  27  49 NW3       29.94F
MAPLE LAKE     FAIR      43  30  60 W5        29.94F
HUTCHINSON     FAIR      37  32  80 W3        29.96F
$$
MNZ037-044-045-052-053-270600-
   East Central Minnesota

CITY           SKY/WX    TMP DP  RH WIND       PRES   REMARKS
PRINCETON      FAIR      36  27  69 CALM      29.92F
MORA           FAIR      36  23  60 CALM      29.92F
CAMBRIDGE      FAIR      39  27  60 CALM      29.92F
RUSH CITY      FAIR      41  23  48 W5        29.91F
MOOSE LAKE     FAIR      34  25  69 CALM      29.87F
HINCKLEY       FAIR      43  23  45 CALM      29.90F
CLOQUET        FAIR      34  16  47 CALM      29.87F
MCGREGOR       FAIR      34  25  69 SW3       29.87F
$$
MNZ071>073-080-081-089-090-097-098-270600-
   Southwest Minnesota

CITY           SKY/WX    TMP DP  RH WIND       PRES   REMARKS
MONTEVIDEO     CLEAR     43  34  70 W7        29.96F
GRANITE FALLS  CLEAR     40  36  84 SW7       29.98F
CANBY          CLEAR     46  34  63 SW7       29.97F
MARSHALL       CLEAR     41  35  79 SW8       29.98F
REDWOOD FALLS  CLEAR     43  33  68 W7        29.96F
OLIVIA         CLEAR     36  32  87 SW5       29.96F
PIPESTONE      CLEAR    N/A N/A N/A CALM      30.01F
WINDOM         CLEAR     37  23  56 W6        29.99F
WORTHINGTON    CLEAR     38  33  82 W9        30.01F
JACKSON        CLEAR     37  32  81 W6        30.00S
TRACY          CLEAR     41  36  83 SW7       29.98F
SLAYTON        CLEAR     40  35  81 W7        30.01F
$$
MNZ065>067-074>077-082>085-091>093-270600-
   South Central Minnesota

CITY           SKY/WX    TMP DP  RH WIND       PRES   REMARKS
MANKATO        FAIR      44  29  55 NW9       29.96F
NEW ULM        CLEAR     39  30  70 W7        29.96F
ST JAMES       CLEAR     39  34  81 W7        29.99S
FAIRMONT       CLEAR     43  32  65 NW9       29.98F
GLENCOE        FAIR      44  30  59 W6        29.94F
OWATONNA       FAIR      41  32  70 NW6       29.95S
WASECA         FAIR      41  30  65 NW7       29.97S
ALBERT LEA     FAIR      46  27  46 NW9       29.95S
$$
MNZ078>079-086>088-094>096-270600-
   Southeast Minnesota

CITY           SKY/WX    TMP DP  RH WIND       PRES   REMARKS
ROCHESTER      FAIR      42  34  73 NW13      29.92S
RED WING       FAIR      48  21  34 NW3       29.91S
STANTON        FAIR      43  32  66 NW8       29.93R
DODGE CENTER   FAIR      45  32  61 NW13      29.93S
WINONA         FAIR      50  34  53 N3        29.89R
AUSTIN         FAIR      45  34  65 NW9       29.93S
PRESTON        FAIR      45  31  57 NW10      29.91S
$$
ABBREVIATIONS USED IN REMARKS
   TC - TEMPERATURES IN CELSIUS
  WCI - WIND CHILL INDEX
   HX - HEAT INDEX
  VSB - VISIBILITY
$$



USA.gov is the U.S. government's official web portal to all federal, state and local government web resources and services.